  AS12050C1    25Jan99
  JST  16:23 - 16:35
                                        
 HI HI AE C7 88 55 0B 3C 05 0D 00 15 64 8F 84 60 93 92 B0 74 A7 A3 A5 A7 A5
 HI HI AE C7 88 55 10 3C FF 0D 00 15 6D 76 8E 60 93 92 B0 7B A7 A3 A5 A7 A5 
 HI HI AE C7 88 55 15 3C 0A 0D 00 15 5E 5F 81 60 93 92 B0 81 A6 A3 A5 A7 A5 
 HI HI AE C7 88 55 1A 3C FF 1A 00 15 46 64 89 60 93 92 B0 54 A6 A3 A5 A7 A5 
 HI HI AE C7 88 55 1F 3C FF 1E 00 15 41 83 7B 60 93 92 B0 58 A6 A3 A5 A7 A5 
 HI HI AE C7 88 55    3C FF 0D 00 15 58 9C 5C 61 93 92 B0 8B A6 A2 A5 A7 A5 
 HI HI AE C7 88 55 09 3C FF 0D 00 15 78 90 65 60 93 92 B0 82 A6 A2 A4 A6 A5 
 HI HI AE C7 88 55 0F 3C FF 1E 00 15 7F 64 80 60 93 92 B0 67 A6 A2 A4 A6 A5 
 HI HI AE C7 88 55 14 3C FF 0D 00 15 63 40 89 61 93 92 B0 85 A6 A2 A4 A6 A5 
 HI HI AE C7 88 55 19 3C FF 0D 00 15 3B 4B 7D 61 93 92 B0 8D A6 A2 A4 A6 A5 
 HI HI AE C7 88 55 1E 3C FF 0D 00 15 30 7E 85 60 93 92 B0 71 A6 A2 A4 A6 A5 
 HI HI AE C7 88 55 03 3C FF 0D 00 15 51 AE 71 61 93 92 B0 6E A5 A2 A4 A6 A5 
 HI HI AE C7 88 55 08 3C FF 0D 00 15 85 AD 57 61 93 92 B0 75 A5 A2 A4 A6 A5 
 HI HI AE C7 88 55 0D 3C FF 0D 00 15 A3 77 60 61 93 92 B0 70 A5 A2 A4 A6 A5 
 HI HI AE C7 88 55 12 3D FF 0D 00 15 90 33 7F 61 93 92 B0 72 A5 A2 A4 A6 A5 
 HI HI AE C7 88 55 17 3E FF 0D 00 15 59 1E 85 61 93 92 B0 6C A5 A2 A4 A6 A5 
 HI HI AE C7 88 55       FF 0D 00 15 3A    7B 61 93 92 B0 55 A5 A2 A3 A5 A5 
 HI HI AE C7 88 55 01 3F FF 0D 00 15 3A 8F 80 61 93 92 B0 4F A5 A1 A3 A5 A4 
 HI HI AE C7 88 55 06 3F FF 0D 00 15 72 B5 6B 61 93 92 B0 77 A5 A1 A3 A5 A4 
 HI HI AE C7 88 55 0B 3F FF 0D 08 15 A9 97 52 61 93 92 B0    A5 A2 A3 A5 A4 

  *これも最初の一行を換算してみましょう.

 テレメトリ	内   容		換算値	単 位
 3C	磁気センサーZ軸	=	49019.6	nT
 3D	磁気センサX軸	=	70098.0	nT
 4A	太陽電池発生電流	=	 1294.1	mA
 4B	B充放電電流	=	 -118.4	mA
 4C	B端子電圧	=	   15.8	V
 4D	B中間端子電圧	=	    7.0	V
 5A	バス電圧	        =	   17.3	V
 5B	JTA送信電力	=	  655.9	mW
 5C 	構体温度1	=	   17.0	℃
 5D	構体温度2	=	   18.6	℃
 6A	構体温度3	=	   17.8	℃
 6B	構体温度4	=	   17.0	℃
 6C	Bセル温度	=	   17.8	℃

 *計算処理は OFFICE 97 を使用.  
 ==========================================================================  
  
 4)FO−20(ふじ 2号)のCWテレメトリは12月22日(火)AM10:05
     (JST)のパスではJN1GKZ局の新井氏の観測報告のとうり、単一トーンの
     連続音から唸りを伴った連続音になっいました.
 
---------------------------------------------------------------------------
 ■ 軌道要素1 :出典は「ふじ3号」に同じ.
 
  FO-20
  1 20480U 90013C   99021.13919593 -.00000006  00000-0  52091-4 0 01178
  2 20480 099.0388 243.7645 0541855 137.8053 226.6093 12.83248209419471

 ■ 軌道要素2 :出典は「ふじ3号」に同じ.  
               
  Satellite: FO-20
  Catalog number: 20480
  Epoch time:      99021.13919593
  Element set:    0117
  Inclination:      099.0388 deg
  RA of node:       243.7645 deg
  Eccentricity:    0.0541855
  Arg of perigee:   137.8053 deg
  Mean anomaly:     226.6093 deg
  Mean motion:   12.83248209 rev/day
  Decay rate:       -6.0e-08 rev/day^2
  Epoch rev:           41947
  Checksum:              320
 ============  FO−20 QSO 情報  ===========
 
  FO-20のQSOのハワイからの期待メールとして、JHTOG局の毛利幹生氏より「jamsat−bb:4105」
  として投稿されていましたのでご紹介します.(1999年1月19日)

        下記のようなメールが、amsat-bbに流れていました。
       AH6HH Sidさんが、FO-20でのJAとの交信を期待されています。
       もしスタンバイできる方がおられましたら、ぜひ連絡してあげて下さい。
       JA3GEP/6 毛利@伊万里

  --------------------------
  Date: Mon, 18 Jan 1999 16:19:45 EST
  From: SSneidar@aol.com
  Reply-To: jamsat-bb@jamsat.or.jp
  Errors-To: owner-jamsat-amsat-bb@ns1.jamsat.or.jp
  To: AMSAT-BB@AMSAT.Org

 I wish to make an FO20 contact with any Japanese amateur. Looking at
 projections it would appear that there is at least one good pass 15 out of 30
 days where maximum elevation for both Japan and Hawaii would be at least 5
 degrees.

 By the by, I have not seen any participation on this BB by Japanese amateurs.
 Do they have a seperate BB for  their part of the world?

 Thanks, de Sid AH6HH in Hawaii
  
  =============== FO−29のディジタルテレメトリについての情報 ==============
    
      FO−29のディジタルテレメトリについてJR8XPV局丹呉 壽男氏より
    SATINF#124 1月23日付けで下記の投稿がありましたので
    ご紹介しておきます.
    
     −−−−−−−−−−−−−−−−−−−−−−−−−−−−−−−−−−−−−
   ●FOシリーズ
  FO-20はJAモードで運用中ですが、CWのビーコンは分からなくなっています。
 FO-29は週の中頃一度だけJDモードで運用されているのを発見しましたが
       また直ぐにJAモードに戻って運用されています。
 この間JARLのホームページに新しい発表はありません。

  文責 JR8XPV/丹呉 壽男
   jr8xpv@jamsat.or.jp
    −−−−−−−−−−−−−−−−−−−−−−−−−−−−−−−−−

      また1月24日(日)の[jamsat-bb:4122]FO−29 JD の見出しで
    JR8XPV局丹呉 壽男氏が下記のテレメトリデータを投稿されていましたの
    でご紹介します.

    −−−−−−−−−−−−−−−−−−−−−−−−−−−−−−−−− 
   23Jan99 05:25 JST頃のパスでFO-29がJDモードになっていました。

  cmd:8J1JCS>BEACON:D5 02 00 09 00 00 A6 40 00 00
  00 00 EF 3E 00 76 7B 83 80 7F
  00 00 00 95 85 B3 F7 00 00 00

  8J1JCS>BEACON:
  User not connect.

  8J1JCS>BEACON:
  Total    1 File(s)

   No.  Date  UTC    To    From   Size   Subject
  0001 01/23 14:43 ALL    HB9SKA      10 Hello agn

  cmd:8J1JCS>BEACON:
  JAS-2    '97/01/23 20:27:33
  9C 03 03 08 00 3A 00 00 00 00
  00 00 0F 10 5A 00 8A 86 86 91
  AA 52 A7 01 AE A2 A3 A3 A0 A1

  8J1JCS>BEACON:D5 02 00 09 00 00 A6 40 00 00
  00 00 2D 71 00 02 01 80 7D 7D
  00 00 00 97 80 B3 F7 00 00 00

  8J1JCS>BEACON:
  User not connect.

  *尚、詳しいスケジュールについてはJARLのTEL.03−3942−1000で
    アナウンス中です.  

  =========================   JARL運用情報   =========================

 5)JARL のホームページに新しい運用の予定が記載されていましたのでご紹介します.

        ■ ふじ3号/FO−29 ■  
  QTC ! 

    12月から「ふじ3号」の日陰率は徐々に増え12月末には20%となります.
   日陰率の増加に伴いコマンドの実行率が徐々に改善されています.年明
  けにはデジトーカの運用が可能と思われますのでご期待下さい.

 連絡先 : lab@jarl.or.jp

 以後の運用に付きましては12月24日18時頃にお知らせいたします。 
         
        ■ ふじ2号/FO−20 ■      
            「ふじ2号」 現況                                                                                               
   JAS-1b/FO-20(ふじ2号)の不具合発生について
    JAS-1b(ふじ2号)のCWテレメトリ信号に,1997年10月12日12時
 (JST)の日本上空通過時,3桁の数字が繰り返されるはずが3個の長音の
  繰り返しとなっているという異常が発見されました。この不具合は次の通過時
  からは回復していましたが13日15時20分の通過時に再び観測されました。
  衛星のアナログ系中継モード動作は異常が無く,正常時のテレメトリ内容からは
  衛星の動作に異常は認められません。従って,直ちに衛星のミッションに影響す
  ることは無いと予想されますので,当面はアナログ系中継モードを継続します。
  衛星は既に打ち上げてから7年8ヶ月を経ておりますので,今後は監視を強化す
  る予定です。アマチュア各位のレポートをお待ちします.   
  
  以上  http://www.jarl.or.jp/Japanese/3_Fuji/jr1nvu.htm  より.
                                           
   =============   JAS-2 (ふじ3号)と現在までの情報   ===========  
  A.電話によるふじ3号の運用情報
      社団法人日本アマチュア連盟によるサービス
           TEL .   03− 3942 − 1000
  B.アマチュア無線FAXサービス
      JARLによるふじ3号の軌道情報(オービットカレンダー)
         FAX No.  03− 3233 −0055
  C.WWWブラウザで情報を簡単に見れる人のためにJAS−2
     ふじ3号の衛星としての運用されるまでの名前)の概要、打ち上げ
     までの状況、運用中における状況を説明したホームページを紹介し
     ておきます.
    1)社団法人日本アマチュア無線連盟(JARL)のホームページ

          http://www.jarl.or.jp/Japanese/3_Fuji/jr1nvu.htm
 
    2)宇宙開発事業団(NASDA)ホームページ 
          http://www.nasda.go.jp/
         打上げ衛星 :地球観測プラットフォーム技術衛星(ADEOS) 
                       アマチュア衛星3号(JAS-2)
          http://yyy.tksc.nasda.go.jp/Home/Press/Press-j/jas-2_j.html        

  D.JAMSATによる軌道情報の活用
        JAMSATのホームページまたはjamsat−kepsの軌道要素より
      衛星の軌道情報を得る.
     JAMSATホームページ
               URL    http://www.jamsat.or.jp
       上記ホームページでは各地で行われるアマチュア通信衛星に関する
      ミューティングのお知らせや世界のアマチュア衛星に関する情報が
      満載されています.
   
 =========================================================================
       JAMSATのメンバーのご協力によりJH6MME(高山 秀造)が
    執筆・編集を担当しております.ご指摘の意見、疑問やこのようにしたら
    というアイデアがありましたら小さなことでもかまいませんので気軽に下
    記アドレスまでご連絡ください.jamsat−newsからjas2
    infoへの転載をJH4PHW局坂井さんに担当して頂いております.
                    Eーmail : jh6mme@jamsat.or.jp : jh4phw@jamsat.or.jp
 ===============================   END  ===============================